Time,TemperatureF,DewpointF,PressureIn,WindDirection,WindDirectionDegrees,WindSpeedMPH,WindSpeedGustMPH,Humidity,HourlyPrecipIn,Conditions,Clouds,dailyrainin,SoftwareType,DateUTC
2013-01-18 00:03:00,19.0,17.0,30.20,East,84,2.0,4.0,90,0.00,,,0.00,,2013-01-18 05:03:00,
2013-01-18 00:12:00,19.0,17.0,30.20,East,84,2.0,4.0,90,0.00,,,0.00,,2013-01-18 05:12:00,
2013-01-18 00:22:00,19.0,16.0,30.21,ESE,114,0.0,4.0,89,0.00,,,0.00,,2013-01-18 05:22:00,
2013-01-18 00:33:00,19.0,16.0,30.22,ESE,107,0.0,5.0,89,0.00,,,0.00,,2013-01-18 05:33:00,
2013-01-18 00:42:00,19.0,16.0,30.22,ESE,107,0.0,5.0,89,0.00,,,0.00,,2013-01-18 05:42:00,
2013-01-18 00:53:00,19.0,17.0,30.22,ESE,107,0.0,0.0,90,0.00,,,0.00,,2013-01-18 05:53:00,
2013-01-18 01:02:00,19.0,17.0,30.22,ESE,107,0.0,2.0,90,0.00,,,0.00,,2013-01-18 06:02:00,
2013-01-18 01:12:00,19.0,17.0,30.22,ESE,107,0.0,2.0,90,0.00,,,0.00,,2013-01-18 06:12:00,
2013-01-18 01:22:00,19.0,17.0,30.24,ESE,109,0.0,2.0,90,0.00,,,0.00,,2013-01-18 06:22:00,
2013-01-18 01:33:00,18.0,16.0,30.24,SSE,161,0.0,2.0,91,0.00,,,0.00,,2013-01-18 06:33:00,
2013-01-18 01:43:00,18.0,16.0,30.24,SSE,161,0.0,2.0,91,0.00,,,0.00,,2013-01-18 06:43:00,
2013-01-18 01:53:00,18.0,16.0,30.25,SSE,161,0.0,0.0,91,0.00,,,0.00,,2013-01-18 06:53:00,
2013-01-18 02:02:00,18.0,16.0,30.26,SSE,161,0.0,0.0,91,0.00,,,0.00,,2013-01-18 07:02:00,
2013-01-18 02:12:00,18.0,16.0,30.26,SSE,161,0.0,0.0,91,0.00,,,0.00,,2013-01-18 07:12:00,
2013-01-18 02:22:00,18.0,16.0,30.28,SW,217,0.0,4.0,91,0.00,,,0.00,,2013-01-18 07:22:00,
2013-01-18 02:32:00,18.0,16.0,30.29,SW,217,1.0,2.0,91,0.00,,,0.00,,2013-01-18 07:32:00,
2013-01-18 02:42:00,18.0,16.0,30.29,SW,217,1.0,2.0,91,0.00,,,0.00,,2013-01-18 07:42:00,
2013-01-18 02:52:00,18.0,16.0,30.29,SW,217,0.0,0.0,91,0.00,,,0.00,,2013-01-18 07:52:00,
2013-01-18 03:02:00,18.0,16.0,30.29,SSE,165,0.0,0.0,91,0.00,,,0.00,,2013-01-18 08:02:00,
2013-01-18 03:12:00,18.0,16.0,30.29,SSE,165,0.0,0.0,91,0.00,,,0.00,,2013-01-18 08:12:00,
2013-01-18 03:22:00,18.0,16.0,30.29,SSE,165,0.0,1.0,92,0.00,,,0.00,,2013-01-18 08:22:00,
2013-01-18 03:32:00,18.0,16.0,30.30,SSE,165,0.0,1.0,91,0.00,,,0.00,,2013-01-18 08:32:00,
2013-01-18 03:42:00,18.0,16.0,30.30,SSE,165,0.0,1.0,91,0.00,,,0.00,,2013-01-18 08:42:00,
2013-01-18 03:53:00,18.0,16.0,30.30,North,349,0.0,3.0,92,0.00,,,0.00,,2013-01-18 08:53:00,
2013-01-18 04:02:00,20.0,16.0,30.30,WSW,258,2.0,5.0,84,0.00,,,0.00,,2013-01-18 09:02:00,
2013-01-18 04:12:00,20.0,16.0,30.30,WSW,258,2.0,5.0,84,0.00,,,0.00,,2013-01-18 09:12:00,
2013-01-18 04:22:00,21.0,16.0,30.30,West,275,2.0,7.0,79,0.00,,,0.00,,2013-01-18 09:22:00,
2013-01-18 04:33:00,21.0,15.0,30.31,SSW,206,1.0,5.0,78,0.00,,,0.00,,2013-01-18 09:33:00,
2013-01-18 04:42:00,21.0,15.0,30.31,SSW,206,1.0,5.0,78,0.00,,,0.00,,2013-01-18 09:42:00,
2013-01-18 04:53:00,20.0,15.0,30.32,SE,129,2.0,8.0,81,0.00,,,0.00,,2013-01-18 09:53:00,
2013-01-18 05:02:00,21.0,15.0,30.32,SSE,152,1.0,9.0,76,0.00,,,0.00,,2013-01-18 10:02:00,
2013-01-18 05:12:00,21.0,15.0,30.32,SSE,152,1.0,9.0,76,0.00,,,0.00,,2013-01-18 10:12:00,
2013-01-18 05:22:00,21.0,14.0,30.33,NW,317,2.0,9.0,75,0.00,,,0.00,,2013-01-18 10:22:00,
2013-01-18 05:32:00,21.0,14.0,30.34,SW,232,3.0,9.0,74,0.00,,,0.00,,2013-01-18 10:32:00,
2013-01-18 05:42:00,21.0,14.0,30.34,SW,232,3.0,9.0,74,0.00,,,0.00,,2013-01-18 10:42:00,
2013-01-18 05:53:00,21.0,14.0,30.35,SE,135,3.0,8.0,73,0.00,,,0.00,,2013-01-18 10:53:00,
2013-01-18 06:02:00,21.0,13.0,30.36,SW,223,2.0,9.0,72,0.00,,,0.00,,2013-01-18 11:02:00,
2013-01-18 06:12:00,21.0,13.0,30.36,SW,223,2.0,9.0,72,0.00,,,0.00,,2013-01-18 11:12:00,
2013-01-18 06:23:00,21.0,14.0,30.37,SSW,194,2.0,6.0,73,0.00,,,0.00,,2013-01-18 11:23:00,
2013-01-18 06:32:00,20.0,13.0,30.38,SSW,202,2.0,8.0,73,0.00,,,0.00,,2013-01-18 11:32:00,
2013-01-18 06:42:00,20.0,13.0,30.38,SSW,202,2.0,8.0,73,0.00,,,0.00,,2013-01-18 11:42:00,
2013-01-18 06:53:00,20.0,11.0,30.38,SW,229,3.0,9.0,69,0.00,,,0.00,,2013-01-18 11:53:00,
2013-01-18 07:03:00,18.0,11.0,30.38,WSW,239,3.0,5.0,75,0.00,,,0.00,,2013-01-18 12:03:00,
2013-01-18 07:12:00,18.0,11.0,30.38,WSW,239,3.0,5.0,75,0.00,,,0.00,,2013-01-18 12:12:00,
2013-01-18 07:23:00,17.0,10.0,30.39,SW,235,4.0,8.0,75,0.00,,,0.00,,2013-01-18 12:23:00,
2013-01-18 07:33:00,16.0,10.0,30.40,SW,230,4.0,6.0,76,0.00,,,0.00,,2013-01-18 12:33:00,
2013-01-18 07:43:00,16.0,10.0,30.40,SW,230,4.0,6.0,76,0.00,,,0.00,,2013-01-18 12:43:00,
2013-01-18 07:53:00,14.0,8.0,30.41,SSW,204,3.0,5.0,77,0.00,,,0.00,,2013-01-18 12:53:00,
2013-01-18 08:03:00,13.0,8.0,30.40,SSW,212,3.0,5.0,79,0.00,,,0.00,,2013-01-18 13:03:00,
2013-01-18 08:12:00,13.0,8.0,30.40,SSW,212,3.0,5.0,79,0.00,,,0.00,,2013-01-18 13:12:00,
2013-01-18 08:23:00,12.0,7.0,30.41,WSW,239,3.0,5.0,80,0.00,,,0.00,,2013-01-18 13:23:00,
2013-01-18 08:33:00,13.0,8.0,30.42,SW,236,5.0,8.0,80,0.00,,,0.00,,2013-01-18 13:33:00,
2013-01-18 08:43:00,13.0,8.0,30.42,SW,236,5.0,8.0,80,0.00,,,0.00,,2013-01-18 13:43:00,
2013-01-18 08:53:00,15.0,9.0,30.42,SW,220,5.0,8.0,75,0.00,,,0.00,,2013-01-18 13:53:00,
2013-01-18 09:03:00,16.0,9.0,30.42,SW,236,3.0,7.0,74,0.00,,,0.00,,2013-01-18 14:03:00,
2013-01-18 09:12:00,16.0,9.0,30.42,SW,236,3.0,7.0,74,0.00,,,0.00,,2013-01-18 14:12:00,
2013-01-18 09:23:00,17.0,10.0,30.43,SW,218,3.0,6.0,73,0.00,,,0.00,,2013-01-18 14:23:00,
2013-01-18 09:33:00,17.0,10.0,30.43,SW,235,3.0,8.0,73,0.00,,,0.00,,2013-01-18 14:33:00,
2013-01-18 09:42:00,17.0,10.0,30.43,SW,235,3.0,8.0,73,0.00,,,0.00,,2013-01-18 14:42:00,
2013-01-18 09:53:00,18.0,11.0,30.44,WSW,241,3.0,6.0,72,0.00,,,0.00,,2013-01-18 14:53:00,
2013-01-18 10:03:00,19.0,11.0,30.45,WSW,240,3.0,6.0,72,0.04,,,0.04,,2013-01-18 15:03:00,
2013-01-18 10:13:00,19.0,11.0,30.45,WSW,240,3.0,6.0,72,0.04,,,0.04,,2013-01-18 15:13:00,
2013-01-18 10:23:00,19.0,11.0,30.45,WSW,238,5.0,8.0,72,0.04,,,0.04,,2013-01-18 15:23:00,
2013-01-18 10:33:00,20.0,12.0,30.45,WSW,254,4.0,8.0,71,0.08,,,0.08,,2013-01-18 15:33:00,
2013-01-18 10:43:00,20.0,12.0,30.45,WSW,254,4.0,8.0,71,0.08,,,0.08,,2013-01-18 15:43:00,
2013-01-18 10:54:00,20.0,12.0,30.44,WSW,254,6.0,9.0,70,0.12,,,0.12,,2013-01-18 15:54:00,
2013-01-18 11:03:00,20.0,11.0,30.44,SSW,207,6.0,10.0,68,0.12,,,0.16,,2013-01-18 16:03:00,
2013-01-18 11:12:00,20.0,11.0,30.44,SSW,207,6.0,10.0,68,0.12,,,0.16,,2013-01-18 16:12:00,
2013-01-18 11:23:00,21.0,12.0,30.44,SW,236,4.0,8.0,67,0.12,,,0.16,,2013-01-18 16:23:00,
2013-01-18 11:33:00,22.0,12.0,30.43,SSW,193,4.0,12.0,64,0.12,,,0.20,,2013-01-18 16:33:00,
2013-01-18 11:42:00,22.0,12.0,30.43,SSW,193,4.0,12.0,64,0.12,,,0.20,,2013-01-18 16:42:00,
2013-01-18 11:53:00,22.0,11.0,30.42,SSW,194,6.0,11.0,62,0.08,,,0.20,,2013-01-18 16:53:00,
2013-01-18 12:03:00,22.0,10.0,30.42,SW,235,5.0,11.0,58,0.08,,,0.24,,2013-01-18 17:03:00,
2013-01-18 12:13:00,22.0,10.0,30.42,SW,235,5.0,11.0,58,0.08,,,0.24,,2013-01-18 17:13:00,
2013-01-18 12:23:00,22.0,9.0,30.41,WSW,239,6.0,11.0,57,0.08,,,0.24,,2013-01-18 17:23:00,
2013-01-18 12:33:00,22.0,9.0,30.40,SW,225,4.0,7.0,57,0.04,,,0.24,,2013-01-18 17:33:00,
2013-01-18 12:43:00,22.0,9.0,30.40,SW,225,4.0,7.0,57,0.04,,,0.24,,2013-01-18 17:43:00,
2013-01-18 12:53:00,23.0,10.0,30.39,SW,219,5.0,9.0,56,0.04,,,0.24,,2013-01-18 17:53:00,
2013-01-18 13:03:00,23.0,9.0,30.38,SW,228,3.0,7.0,55,0.04,,,0.28,,2013-01-18 18:03:00,
2013-01-18 13:13:00,23.0,9.0,30.38,SW,228,3.0,7.0,55,0.04,,,0.28,,2013-01-18 18:13:00,
2013-01-18 13:23:00,24.0,10.0,30.38,SW,225,3.0,7.0,55,0.04,,,0.28,,2013-01-18 18:23:00,
2013-01-18 13:33:00,23.0,8.0,30.37,SW,221,5.0,9.0,53,0.08,,,0.31,,2013-01-18 18:33:00,
2013-01-18 13:43:00,23.0,8.0,30.37,SW,221,5.0,9.0,53,0.08,,,0.31,,2013-01-18 18:43:00,
2013-01-18 13:53:00,23.0,9.0,30.37,SW,223,6.0,10.0,55,0.08,,,0.31,,2013-01-18 18:53:00,
2013-01-18 14:03:00,24.0,10.0,30.37,SSW,209,5.0,10.0,55,0.04,,,0.31,,2013-01-18 19:03:00,
2013-01-18 14:13:00,24.0,10.0,30.37,SSW,209,5.0,10.0,55,0.04,,,0.31,,2013-01-18 19:13:00,
2013-01-18 14:23:00,23.0,10.0,30.36,WSW,243,6.0,11.0,56,0.04,,,0.31,,2013-01-18 19:23:00,
2013-01-18 14:33:00,24.0,11.0,30.35,SW,231,5.0,10.0,57,0.00,,,0.31,,2013-01-18 19:33:00,
2013-01-18 14:43:00,24.0,11.0,30.35,SW,231,5.0,10.0,57,0.00,,,0.31,,2013-01-18 19:43:00,
2013-01-18 14:53:00,25.0,11.0,30.33,SSW,209,6.0,11.0,55,0.00,,,0.31,,2013-01-18 19:53:00,
2013-01-18 15:03:00,24.0,11.0,30.32,SSW,204,3.0,9.0,56,0.00,,,0.31,,2013-01-18 20:03:00,
2013-01-18 15:13:00,24.0,11.0,30.32,SSW,204,3.0,9.0,56,0.00,,,0.31,,2013-01-18 20:13:00,
2013-01-18 15:23:00,24.0,11.0,30.32,SW,219,4.0,9.0,58,0.00,,,0.31,,2013-01-18 20:23:00,
2013-01-18 15:33:00,24.0,13.0,30.30,SW,234,5.0,10.0,62,0.00,,,0.31,,2013-01-18 20:33:00,
2013-01-18 15:43:00,24.0,13.0,30.30,SW,234,5.0,10.0,62,0.00,,,0.31,,2013-01-18 20:43:00,
2013-01-18 15:53:00,24.0,14.0,30.29,WSW,238,4.0,9.0,64,0.00,,,0.31,,2013-01-18 20:53:00,
2013-01-18 16:03:00,25.0,15.0,30.28,SSW,196,4.0,9.0,66,0.00,,,0.31,,2013-01-18 21:03:00,
2013-01-18 16:13:00,25.0,15.0,30.28,SSW,196,4.0,9.0,66,0.00,,,0.31,,2013-01-18 21:13:00,
2013-01-18 16:23:00,25.0,16.0,30.27,SSW,211,5.0,10.0,67,0.00,,,0.31,,2013-01-18 21:23:00,
2013-01-18 16:33:00,25.0,16.0,30.26,SW,219,4.0,7.0,68,0.00,,,0.31,,2013-01-18 21:33:00,
2013-01-18 16:43:00,25.0,16.0,30.26,SW,219,4.0,7.0,68,0.00,,,0.31,,2013-01-18 21:43:00,
2013-01-18 16:53:00,26.0,17.0,30.25,SSW,209,3.0,6.0,69,0.00,,,0.31,,2013-01-18 21:53:00,
2013-01-18 17:03:00,26.0,18.0,30.25,SSW,212,3.0,5.0,70,0.00,,,0.31,,2013-01-18 22:03:00,
2013-01-18 17:12:00,26.0,18.0,30.25,SSW,212,3.0,5.0,70,0.00,,,0.31,,2013-01-18 22:12:00,
2013-01-18 17:23:00,26.0,18.0,30.24,SW,223,3.0,7.0,71,0.00,,,0.31,,2013-01-18 22:23:00,
2013-01-18 17:33:00,27.0,19.0,30.23,SW,222,8.0,13.0,72,0.00,,,0.31,,2013-01-18 22:33:00,
2013-01-18 17:43:00,27.0,19.0,30.23,SW,222,8.0,13.0,72,0.00,,,0.31,,2013-01-18 22:43:00,
2013-01-18 17:53:00,28.0,20.0,30.23,SSW,210,6.0,13.0,72,0.00,,,0.31,,2013-01-18 22:53:00,
2013-01-18 18:03:00,28.0,20.0,30.22,SSW,194,7.0,10.0,72,0.00,,,0.31,,2013-01-18 23:03:00,
2013-01-18 18:12:00,28.0,20.0,30.22,SSW,194,7.0,10.0,72,0.00,,,0.31,,2013-01-18 23:12:00,
2013-01-18 18:23:00,28.0,20.0,30.22,SW,219,7.0,13.0,71,0.00,,,0.31,,2013-01-18 23:23:00,
2013-01-18 18:33:00,28.0,19.0,30.21,SSW,213,7.0,14.0,69,0.00,,,0.31,,2013-01-18 23:33:00,
2013-01-18 18:43:00,28.0,19.0,30.21,SSW,213,7.0,14.0,69,0.00,,,0.31,,2013-01-18 23:43:00,
2013-01-18 18:53:00,28.0,19.0,30.20,SW,227,7.0,13.0,68,0.00,,,0.31,,2013-01-18 23:53:00,
2013-01-18 19:02:00,29.0,19.0,30.19,SSW,205,7.0,10.0,67,0.00,,,0.31,,2013-01-19 00:02:00,
2013-01-18 19:12:00,29.0,19.0,30.19,SSW,205,7.0,10.0,67,0.00,,,0.31,,2013-01-19 00:12:00,
2013-01-18 19:23:00,29.0,19.0,30.17,SW,223,7.0,12.0,66,0.00,,,0.31,,2013-01-19 00:23:00,
2013-01-18 19:33:00,29.0,19.0,30.16,SSW,210,8.0,13.0,66,0.00,,,0.31,,2013-01-19 00:33:00,
2013-01-18 19:43:00,29.0,19.0,30.16,SSW,210,8.0,13.0,66,0.00,,,0.31,,2013-01-19 00:43:00,
2013-01-18 19:53:00,30.0,20.0,30.14,SSW,210,8.0,18.0,65,0.00,,,0.31,,2013-01-19 00:53:00,
2013-01-18 20:02:00,30.0,20.0,30.14,SSW,205,7.0,13.0,65,0.00,,,0.31,,2013-01-19 01:02:00,
2013-01-18 20:12:00,30.0,20.0,30.14,SSW,205,7.0,13.0,65,0.00,,,0.31,,2013-01-19 01:12:00,
2013-01-18 20:22:00,31.0,21.0,30.12,SSW,210,9.0,15.0,65,0.00,,,0.31,,2013-01-19 01:22:00,
2013-01-18 20:33:00,31.0,21.0,30.12,SW,221,8.0,17.0,65,0.00,,,0.31,,2013-01-19 01:33:00,
2013-01-18 20:42:00,31.0,21.0,30.12,SW,221,8.0,17.0,65,0.00,,,0.31,,2013-01-19 01:42:00,
2013-01-18 20:53:00,31.0,21.0,30.10,SW,217,8.0,13.0,65,0.00,,,0.31,,2013-01-19 01:53:00,
2013-01-18 21:02:00,31.0,20.0,30.08,SW,217,9.0,16.0,64,0.00,,,0.31,,2013-01-19 02:02:00,
2013-01-18 21:12:00,31.0,20.0,30.08,SW,217,9.0,16.0,64,0.00,,,0.31,,2013-01-19 02:12:00,
2013-01-18 21:23:00,32.0,21.0,30.07,SW,234,12.0,20.0,64,0.00,,,0.31,,2013-01-19 02:23:00,
2013-01-18 21:33:00,32.0,22.0,30.06,SW,221,11.0,17.0,65,0.00,,,0.31,,2013-01-19 02:33:00,
2013-01-18 21:43:00,32.0,22.0,30.06,SW,221,11.0,17.0,65,0.00,,,0.31,,2013-01-19 02:43:00,
2013-01-18 21:53:00,33.0,22.0,30.06,SSW,211,9.0,17.0,64,0.00,,,0.31,,2013-01-19 02:53:00,
2013-01-18 22:03:00,33.0,22.0,30.04,SW,225,12.0,23.0,64,0.00,,,0.31,,2013-01-19 03:03:00,
2013-01-18 22:12:00,33.0,22.0,30.04,SW,225,12.0,23.0,64,0.00,,,0.31,,2013-01-19 03:12:00,
2013-01-18 22:22:00,34.0,23.0,30.05,SW,214,10.0,19.0,64,0.00,,,0.31,,2013-01-19 03:22:00,
2013-01-18 22:33:00,34.0,23.0,30.04,SW,229,10.0,16.0,64,0.00,,,0.31,,2013-01-19 03:33:00,
2013-01-18 22:43:00,34.0,23.0,30.04,SW,229,10.0,16.0,64,0.00,,,0.31,,2013-01-19 03:43:00,
2013-01-18 22:53:00,34.0,23.0,30.03,SW,220,10.0,20.0,65,0.00,,,0.31,,2013-01-19 03:53:00,
2013-01-18 23:02:00,35.0,24.0,30.01,SW,217,12.0,17.0,65,0.00,,,0.31,,2013-01-19 04:02:00,
2013-01-18 23:12:00,35.0,24.0,30.01,SW,217,12.0,17.0,65,0.00,,,0.31,,2013-01-19 04:12:00,
2013-01-18 23:22:00,35.0,25.0,30.00,SW,225,8.0,17.0,66,0.00,,,0.31,,2013-01-19 04:22:00,
2013-01-18 23:32:00,35.0,24.0,30.03,SSW,205,4.0,13.0,65,0.00,,,0.31,,2013-01-19 04:32:00,
2013-01-18 23:42:00,35.0,24.0,30.03,SSW,205,4.0,13.0,65,0.00,,,0.31,,2013-01-19 04:42:00,
2013-01-18 23:53:00,35.0,24.0,30.02,WSW,238,8.0,13.0,64,0.00,,,0.31,,2013-01-19 04:53:00,